SCP
1 1 2 3 3 3 2 2 2 2 2 2 1 1 1 1 1 1 1 1 0 0 0 0 0 0 0 0 0 0 0 0 0 0 0 0 0 0 0 0 0 0 0
1 1 2 2 3 3 3 2 2 2 2 2 2 1 1 1 1 1 1 1 0 0 0 0 0 0 0 0 0 0 0 0 0 0 0 0 0 0 0 0 0 0 0
1 1 2 2 2 3 3 2 2 2 2 2 2 2 1 1 1 1 1 1 1 1 0 0 0 0 0 0 0 0 0 0 0 0 0 0 0 0 0 0 0 0 0
1 1 1 2 2 2 2 2 2 2 2 2 2 2 2 1 1 1 1 1 1 1 1 1 1 0 0 0 0 0 0 0 0 0 0 0 0 0 0 0 0 0 0
1 1 1 2 2 2 2 2 2 2 2 2 2 2 2 1 1 1 1 1 1 1 1 1 1 1 1 0 0 0 0 0 0 0 0 0 0 0 0 0 0 0 0
1 1 1 2 2 2 2 2 2 2 2 2 2 2 2 2 1 1 1 1 1 1 1 1 1 1 1 1 0 0 0 0 0 0 0 0 0 0 0 0 0 0 0
2 2 2 2 2 2 2 2 2 2 2 2 2 2 2 2 2 2 1 1 1 1 1 1 1 1 1 1 0 0 0 0 0 0 0 0 0 0 0 0 0 0 0
2 2 2 2 2 2 2 2 2 2 2 2 2 2 2 2 2 2 2 1 1 1 1 1 1 1 1 1 0 0 0 0 0 0 0 0 0 0 0 0 0 0 0
2 2 2 2 2 2 2 2 2 2 2 2 2 2 2 2 2 2 2 1 1 1 1 1 1 1 1 1 0 0 0 0 0 0 0 0 0 0 0 0 0 0 0
2 2 2 2 2 2 1 1 1 1 1 2 2 2 2 1 1 1 1 1 1 1 1 1 1 1 1 1 0 0 0 0 0 0 0 0 0 0 0 0 0 0 0
2 2 2 2 2 2 2 1 1 1 1 1 2 2 1 1 1 1 1 1 1 1 1 1 1 1 1 1 0 0 0 0 0 0 0 0 0 0 0 0 0 0 0
1 1 2 2 2 2 2 2 2 1 1 1 1 2 2 1 1 1 1 1 1 1 1 1 1 1 1 1 0 0 0 0 0 0 0 0 0 0 0 0 0 0 0
0 1 1 2 2 2 2 2 2 2 2 2 1 2 2 2 2 1 1 1 1 1 1 1 1 1 1 1 0 0 0 0 0 0 0 0 0 0 0 0 0 0 0
0 0 1 1 2 2 2 2 2 2 2 2 2 2 2 2 2 1 1 1 1 1 1 1 1 1 1 1 1 0 0 0 0 0 0 0 0 0 0 0 0 0 0
0 0 0 1 1 1 2 2 2 2 2 2 2 2 2 2 2 2 1 1 1 1 1 1 1 1 1 1 0 0 0 0 0 0 0 0 0 0 0 0 0 0 0
0 0 0 0 1 1 1 1 1 1 2 2 2 2 1 2 2 2 1 1 1 1 1 1 1 1 1 1 0 0 0 0 0 0 0 0 0 0 0 0 0 0 0
0 0 0 0 1 1 1 1 1 1 2 2 2 2 1 1 2 2 2 1 1 1 1 1 1 1 1 1 0 0 0 0 0 0 0 0 0 0 0 0 0 0 0
0 0 0 0 1 1 1 1 1 1 1 2 2 1 1 1 2 2 2 1 1 1 1 1 1 1 1 1 0 0 0 0 0 0 0 0 0 0 0 0 0 0 0
0 0 0 0 1 1 1 1 1 1 1 2 2 2 1 1 1 2 2 1 1 1 1 1 1 1 1 1 0 0 0 0 0 0 0 0 0 0 0 0 0 0 0
0 0 0 0 1 1 1 1 1 1 1 2 2 2 2 1 1 2 1 1 1 1 1 1 1 1 1 1 0 0 0 0 0 0 0 0 0 0 0 0 0 0 0
0 0 0 0 1 1 1 1 1 1 1 2 3 3 2 2 2 2 1 1 1 1 1 1 1 1 1 1 0 0 0 0 0 0 0 0 0 0 0 0 0 0 0
0 0 0 0 1 1 1 1 1 1 2 2 3 3 2 2 2 2 1 1 1 1 1 1 1 1 1 1 1 1 1 1 1 1 1 1 1 0 0 0 0 0 0
0 0 0 1 1 1 1 1 1 2 2 2 2 2 2 2 2 2 1 1 1 1 1 1 1 1 1 1 1 1 1 1 1 1 1 1 1 1 1 0 0 0 0
0 0 0 1 1 1 1 1 1 2 2 2 2 2 2 2 2 2 2 1 1 1 1 1 1 1 1 1 1 1 1 1 1 1 0 1 1 1 0 0 0 0 0
0 0 0 0 0 1 1 1 1 1 2 2 2 2 2 2 2 2 2 2 2 1 1 1 1 1 1 1 1 1 1 1 0 0 0 0 0 1 1 0 0 0 0
0 0 0 0 0 0 1 1 1 1 2 2 2 2 2 2 2 2 2 2 2 2 1 1 1 1 1 1 1 1 1 1 0 0 0 0 0 1 1 1 0 0 0
Wind_Speed
1 3 9 11 12 12 12 11 12 12 13 14 14 14 14 13 12 12 12 12 12 12 13 13 13 13 12 12 12 12 12 13 13 13 12 12 12 12 11 9 7 11 12
4 4 9 11 12 12 12 11 11 11 11 13 14 14 14 13 13 12 12 12 12 13 13 13 13 13 12 13 13 12 12 13 13 12 10 10 10 11 11 10 10 10 11
4 3 10 11 11 11 11 11 11 11 11 12 13 14 14 13 13 12 12 12 12 13 13 13 13 13 13 12 12 12 12 12 11 8 6 9 10 11 11 11 11 11 11
4 3 8 10 11 11 11 11 11 11 11 11 12 13 13 13 13 13 12 12 12 13 13 13 13 13 12 12 12 12 12 11 9 4 5 8 9 10 10 10 10 10 10
3 2 5 8 10 11 11 11 11 11 11 11 11 12 13 13 13 13 13 12 11 11 12 13 13 12 12 12 11 11 11 10 6 4 7 7 8 9 9 9 9 9 9
3 1 3 5 8 10 11 11 11 12 12 12 11 11 12 13 13 13 12 11 10 11 12 13 13 12 12 11 11 11 10 9 7 6 6 6 7 9 9 8 8 8 8
5 2 1 2 6 9 10 11 11 11 12 12 12 12 13 13 13 13 11 11 12 12 13 13 14 13 12 11 11 11 10 6 5 6 5 5 7 8 8 8 7 7 7
6 4 2 1 3 6 8 10 11 11 12 12 12 12 13 13 13 13 12 12 13 14 14 14 14 13 12 11 11 10 9 6 5 6 5 5 7 7 7 7 6 6 6
6 5 3 3 4 6 7 9 10 10 11 11 11 11 11 11 12 13 13 13 14 14 14 14 14 13 12 11 11 10 8 5 5 4 5 4 6 6 7 6 6 5 5
6 5 5 4 4 5 7 8 9 10 10 11 10 10 10 11 12 12 13 13 13 14 14 14 14 13 12 11 10 9 8 6 6 5 4 5 5 6 7 6 5 4 4
8 7 5 5 5 5 6 6 8 9 9 10 10 10 10 11 12 11 14 12 13 13 14 14 14 13 10 9 9 9 8 6 6 4 4 5 6 6 6 6 5 4 3
10 9 7 6 6 5 5 5 6 7 8 9 9 11 10 9 9 9 11 12 13 13 13 14 13 12 10 8 9 9 7 7 6 5 4 5 7 7 6 6 5 5 4
10 9 8 7 7 6 4 5 4 4 5 8 10 10 9 8 7 7 6 8 11 12 11 11 12 10 10 8 7 8 7 6 4 4 5 7 8 8 7 7 6 6 5
11 10 9 8 7 7 6 5 5 5 5 5 8 10 8 6 7 7 6 8 9 8 9 9 8 11 11 10 10 10 9 6 5 4 4 7 8 8 8 7 7 7 6
11 10 10 8 8 7 6 5 6 6 6 6 6 8 9 7 8 8 7 7 9 8 9 9 10 11 11 10 9 10 9 9 8 6 4 7 7 8 8 8 8 8 7
10 10 9 9 9 8 7 7 6 6 6 6 6 8 10 8 8 8 8 8 8 8 8 9 10 9 9 8 9 10 9 9 8 8 6 7 8 8 8 8 8 8 8
11 10 10 9 8 9 9 8 7 6 6 6 6 8 9 9 9 8 8 8 8 8 9 9 10 9 8 8 10 10 8 9 8 8 7 6 7 9 9 9 9 8 8
10 10 10 8 8 8 8 7 6 6 7 6 6 7 10 10 10 8 7 7 8 7 7 8 8 8 9 9 9 8 8 7 10 9 8 7 7 6 9 9 9 9 9
10 10 9 8 8 8 8 6 6 6 6 6 6 6 8 10 10 9 8 8 9 7 7 8 8 8 9 9 8 8 8 8 9 8 10 9 8 8 7 8 9 8 8
9 9 8 8 7 7 6 5 5 6 6 6 6 7 8 8 10 9 8 9 9 8 8 9 10 9 8 8 7 7 8 8 8 8 10 9 8 9 9 8 8 7 9
8 8 8 7 7 5 4 5 5 6 5 5 6 7 8 7 8 9 8 9 9 9 10 11 9 10 9 7 6 7 7 9 9 8 8 8 9 9 9 9 8 7 6
9 8 7 7 6 6 5 5 5 5 4 4 4 6 7 8 8 7 9 8 9 8 10 11 10 8 7 8 7 6 6 8 9 9 8 8 9 8 9 10 9 9 7
9 8 7 7 6 5 5 4 3 3 3 4 4 5 6 7 8 8 9 8 8 8 8 10 11 12 9 9 9 7 6 8 6 7 10 9 9 8 9 9 10 10 10
10 9 8 6 5 4 3 3 4 3 4 5 4 4 5 6 7 7 8 9 8 8 9 9 10 9 9 9 8 9 7 4 5 6 7 8 10 10 10 8 9 10 10
10 9 8 7 6 5 3 2 3 3 4 3 3 4 5 5 5 5 6 6 7 7 8 9 9 9 8 8 8 7 8 6 7 5 6 7 7 8 9 10 8 8 9
10 9 8 8 8 6 3 2 2 3 3 2 3 3 3 3 3 5 6 6 6 6 7 7 8 10 9 9 7 7 7 7 7 7 7 6 7 7 8 7 8 8 8
Wind_Direction
341 187 164 174 168 162 159 157 156 156 156 157 159 158 158 157 156 154 153 154 153 146 142 141 137 134 130 126 121 116 111 107 103 97 94 93 94 93 88 84 92 88 83
317 211 166 177 172 167 164 160 158 158 159 160 162 162 162 162 162 160 158 158 157 152 148 146 142 137 131 124 118 115 111 105 102 99 101 100 92 92 88 72 62 83 86
317 211 177 179 173 171 169 165 163 164 165 165 167 167 167 167 168 167 165 162 159 157 154 148 143 138 132 126 122 118 115 111 108 112 148 118 104 95 92 87 85 88 86
321 214 187 173 176 174 174 171 171 171 172 172 173 172 173 173 173 172 171 166 161 159 154 147 142 138 135 132 129 127 123 119 119 168 141 111 109 102 100 95 92 89 87
337 226 182 174 181 179 178 177 177 179 179 181 180 178 178 178 179 177 175 170 163 159 154 147 143 142 141 140 138 135 130 127 139 183 112 111 106 107 104 99 95 92 90
350 289 183 184 188 186 184 184 186 186 186 188 186 184 183 183 184 182 179 171 163 159 155 152 149 149 147 147 146 143 138 142 180 131 124 121 112 114 110 106 102 99 95
345 327 216 188 202 196 194 194 194 193 192 193 193 192 190 189 188 184 178 171 166 163 161 159 157 156 154 155 152 148 147 166 176 135 133 123 110 121 119 115 111 106 101
337 325 301 192 217 208 204 204 202 202 201 200 199 197 196 193 191 187 179 173 172 171 169 167 164 162 162 162 159 153 152 189 171 149 144 130 113 134 127 122 118 113 107
338 324 308 268 228 212 211 210 211 209 208 208 206 202 201 196 194 188 181 178 177 176 174 172 170 168 168 168 164 159 160 206 196 157 156 137 133 151 139 136 133 126 121
335 328 315 296 272 246 224 213 216 216 214 213 211 208 207 201 197 191 186 183 180 179 177 176 175 172 172 171 167 163 163 198 199 170 175 139 158 166 152 151 151 147 142
332 329 316 304 290 271 252 221 215 218 219 217 214 209 210 212 206 196 196 184 182 181 180 180 179 175 170 170 166 163 179 207 190 189 183 134 186 183 170 169 172 172 170
319 322 318 306 292 280 263 240 227 224 218 220 222 214 215 217 213 208 189 183 185 181 182 183 179 174 183 183 172 179 204 207 196 192 167 158 200 198 188 185 190 195 196
306 306 308 305 293 279 267 254 239 230 225 224 225 220 218 217 213 209 193 186 191 187 190 185 185 193 199 196 189 198 207 204 206 196 173 179 211 211 203 200 203 206 208
297 296 298 298 290 280 270 259 248 239 231 228 225 223 218 214 213 208 202 197 197 195 196 194 200 198 202 201 202 202 201 208 211 206 172 180 218 222 215 209 209 211 214
290 290 291 290 285 276 268 260 251 246 241 236 230 224 218 214 213 212 208 204 203 199 196 199 204 201 202 204 207 209 208 211 214 209 185 185 217 227 226 221 215 214 214
289 289 289 284 281 272 262 256 254 248 242 242 234 227 222 218 213 210 211 209 209 205 201 202 204 203 204 204 209 212 214 214 220 216 214 189 205 221 226 226 223 218 219
291 291 288 284 279 271 263 257 252 245 241 238 234 233 227 221 216 211 210 209 209 208 206 206 206 206 206 205 211 214 217 220 218 219 216 215 201 205 219 224 225 225 226
291 289 288 285 278 272 265 260 256 248 241 239 237 235 232 226 221 217 213 210 207 205 205 206 205 203 205 207 210 209 214 217 225 223 218 215 215 207 204 213 223 228 231
294 288 285 282 276 271 266 260 256 252 245 243 241 237 233 229 223 220 218 212 205 203 204 205 206 206 208 210 214 212 214 216 221 221 223 220 218 217 216 193 208 223 228
301 292 285 281 275 270 263 259 254 249 245 243 243 238 236 232 227 223 221 217 206 204 206 207 207 206 212 208 211 216 219 220 221 222 225 222 219 218 221 215 206 208 218
311 302 290 282 274 263 255 249 245 244 243 241 241 239 236 235 231 226 224 218 212 209 210 208 207 208 210 202 201 213 222 225 226 221 221 222 219 217 218 218 218 214 206
322 315 304 291 277 260 250 248 251 253 249 246 249 246 240 237 230 226 224 221 216 213 213 211 207 208 204 196 199 199 214 216 221 224 221 219 220 213 218 220 218 217 217
334 328 320 308 291 275 260 247 248 248 252 248 246 247 244 240 236 231 231 226 220 216 214 210 208 209 206 203 206 204 207 219 209 208 216 216 215 215 216 216 219 218 218
343 340 336 329 320 308 284 255 239 238 242 249 252 251 253 251 247 242 238 232 226 222 219 214 209 211 212 210 211 222 233 231 210 208 206 215 217 219 219 214 216 216 216
350 349 347 346 347 341 326 292 258 256 257 266 267 261 259 258 255 254 249 243 235 230 227 222 216 213 213 216 213 212 222 229 229 227 219 204 209 218 219 217 213 214 213
359 358 357 358 357 352 350 329 290 276 279 280 287 287 275 272 270 269 261 251 245 239 233 228 223 221 219 219 219 218 215 213 214 221 230 218 216 211 211 214 215 214 211